Weather History for Fort Lauderdale, FL

Change the Weather History Date:

Friday, November 25, 2011

  Actual Average Record
Temperature  
Mean Temperature 75 °F -  
Max Temperature 78 °F 80 °F 89 °F (1967)
Min Temperature 72 °F 62 °F 36 °F (1970)
Cooling Degree Days 10    
Growing Degree Days 25 (Base 50)    
Moisture  
Dew Point 54 °F    
Average Humidity 48    
Maximum Humidity 57    
Minimum Humidity 40    
Precipitation  
Precipitation 0.00 in - - ()
Sea Level Pressure  
Sea Level Pressure 30.17 in    
Wind  
Wind Speed 14 mph (ENE)    
Max Wind Speed 21 mph    
Max Gust Speed 28 mph    
Visibility 10 miles    
Events      
Averages and records for this station are not official NWS values.
T = Trace of Precipitation, MM = Missing Value Source: NWS Daily Summary

Daily Weather History Graph

Daily Weather History Graph

Search for Another Location

Airport:

Trip Planner

Search our weather history database for the weather conditions in past years. The results will help you decide how hot, cold, wet, or windy it might be!

Date:

Astronomy

Nov. 25, 2011 Rise Set
Actual Time 6:46 AM EST 5:28 PM EST
Civil Twilight 6:21 AM EST 5:53 PM EST
Nautical Twilight 5:53 AM EST 6:21 PM EST
Astronomical Twilight 5:25 AM EST 6:49 PM EST
Moon 7:07 AM EST (11/25) 6:00 PM EST (11/25)
Length of Visible Light 11h 31m
Length of Day
10h 42m
New Moon, 0% of the Moon is Illuminated
Nov 25
New Moon
Dec 2
First Quarter
Dec 10
Full
Dec 17
Last Quarter
Dec 24
New

Hourly Weather History & Observations

Time (EST) Temp. Dew Point Humidity Pressure Visibility Wind Dir Wind Speed Gust Speed Precip Events Conditions
12:53 AM 73.0 °F 53.1 °F 49% 30.17 in 10.0 mi ENE 12.7 mph - N/A   Mostly Cloudy
1:53 AM 73.0 °F 53.1 °F 49% 30.16 in 10.0 mi ENE 12.7 mph - N/A   Scattered Clouds
3:53 AM 72.0 °F 53.1 °F 51% 30.15 in 10.0 mi ENE 11.5 mph - N/A   Mostly Cloudy
4:53 AM 73.0 °F 55.9 °F 55% 30.15 in 10.0 mi ENE 16.1 mph 24.2 mph N/A   Scattered Clouds
5:53 AM 73.0 °F 55.0 °F 53% 30.16 in 10.0 mi ENE 11.5 mph - N/A   Mostly Cloudy
6:53 AM 73.0 °F 53.1 °F 49% 30.18 in 10.0 mi ENE 17.3 mph 25.3 mph N/A   Mostly Cloudy
7:53 AM 73.9 °F 51.1 °F 45% 30.19 in 10.0 mi ENE 12.7 mph - N/A   Mostly Cloudy
8:53 AM 75.0 °F 54.0 °F 48% 30.20 in 10.0 mi ENE 11.5 mph - N/A   Scattered Clouds
9:53 AM 78.1 °F 52.0 °F 40% 30.22 in 10.0 mi East 15.0 mph 25.3 mph N/A   Scattered Clouds
10:53 AM 78.8 °F 53.6 °F 42% 30.20 in 10.0 mi ENE 20.7 mph 27.6 mph N/A   Scattered Clouds
12:53 PM 78.1 °F 53.1 °F 42% 30.17 in 10.0 mi ENE 15.0 mph - N/A   Scattered Clouds
1:53 PM 78.1 °F 55.9 °F 46% 30.14 in 10.0 mi NE 12.7 mph 18.4 mph N/A   Mostly Cloudy
4:53 PM 75.9 °F 54.0 °F 46% 30.13 in 10.0 mi NE 11.5 mph - N/A   Scattered Clouds
5:53 PM 75.0 °F 54.0 °F 48% 30.13 in 10.0 mi ENE 9.2 mph - N/A   Mostly Cloudy
6:53 PM 75.0 °F 55.0 °F 50% 30.14 in 10.0 mi ENE 12.7 mph 20.7 mph N/A   Scattered Clouds
7:53 PM 75.0 °F 59.0 °F 57% 30.15 in 10.0 mi ENE 16.1 mph 21.9 mph N/A   Mostly Cloudy
8:53 PM 75.0 °F 53.1 °F 46% 30.17 in 10.0 mi ENE 16.1 mph 23.0 mph N/A   Scattered Clouds
9:53 PM 75.0 °F 55.9 °F 51% 30.17 in 10.0 mi ENE 13.8 mph 19.6 mph N/A   Mostly Cloudy
10:53 PM 73.9 °F 57.0 °F 55% 30.17 in 10.0 mi ENE 17.3 mph - N/A   Scattered Clouds
11:53 PM 75.0 °F 53.1 °F 46% 30.16 in 10.0 mi East 20.7 mph 27.6 mph N/A   Mostly Cloudy